When you browse on this site, cookies collect data to enhance your experience and personalize the content and advertising you see.
Visit our Privacy Policy to learn more. By continuing to use the site, you agree to this use of cookies and data.
  • In Deutschland
  • Länderverzeichnis
  • Für 7 Tage
  • Wassertemperatur
  • Wetterkarte
  • Widgets
  • user-avatar
    Anmelden

    Stündliche Wetter Abowian

    Heute, 19 September, Donnerstag

    Zeit Temperatur Niederschläge Wind Luftdruck Luftfeuchtigkeit
    00:00 +20°C° 0 mm 1 m/S 674 mmHg 38%
    01:00 +20°C° 0 mm 1 m/S 674 mmHg 38%
    02:00 +19°C° 0 mm 1 m/S 673 mmHg 39%
    03:00 +19°C° 0 mm 1 m/S 673 mmHg 40%
    04:00 +18°C° 0 mm 1 m/S 673 mmHg 41%
    05:00 +18°C° 0 mm 1 m/S 673 mmHg 42%
    06:00 +18°C° 0 mm 1 m/S 673 mmHg 43%
    07:00 +20°C° 0 mm 1 m/S 673 mmHg 38%
    08:00 +23°C° 0 mm 1 m/S 674 mmHg 33%
    09:00 +26°C° 0 mm 1 m/S 674 mmHg 28%
    10:00 +27°C° 0 mm 1 m/S 675 mmHg 26%
    11:00 +28°C° 0 mm 1 m/S 675 mmHg 24%
    12:00 +29°C° 0 mm 2 m/S 675 mmHg 22%
    13:00 +30°C° 0 mm 2 m/S 675 mmHg 21%
    14:00 +30°C° 0 mm 1 m/S 674 mmHg 19%
    15:00 +30°C° 0 mm 1 m/S 674 mmHg 18%
    16:00 +29°C° 0 mm 1 m/S 674 mmHg 21%
    17:00 +27°C° 0 mm 1 m/S 673 mmHg 24%
    18:00 +25°C° 0 mm 1 m/S 673 mmHg 27%
    19:00 +24°C° 0 mm 1 m/S 673 mmHg 27%
    20:00 +23°C° 0 mm 2 m/S 673 mmHg 28%
    21:00 +23°C° 0 mm 2 m/S 673 mmHg 29%
    22:00 +21°C° 0 mm 2 m/S 673 mmHg 31%
    23:00 +20°C° 0 mm 2 m/S 673 mmHg 32%

    Morgen, 20 September, Freitag

    Zeit Temperatur Niederschläge Wind Luftdruck Luftfeuchtigkeit
    00:00 +20°C° 0 mm 2 m/S 673 mmHg 34%
    01:00 +19°C° 0 mm 2 m/S 673 mmHg 36%
    02:00 +19°C° 0 mm 2 m/S 672 mmHg 39%
    03:00 +18°C° 0 mm 2 m/S 672 mmHg 41%
    04:00 +18°C° 0 mm 2 m/S 672 mmHg 42%
    05:00 +18°C° 0 mm 1 m/S 672 mmHg 43%
    06:00 +18°C° 0 mm 1 m/S 672 mmHg 44%
    07:00 +20°C° 0 mm 2 m/S 672 mmHg 38%
    08:00 +23°C° 0 mm 2 m/S 672 mmHg 33%
    09:00 +26°C° 0 mm 2 m/S 673 mmHg 27%
    10:00 +27°C° 0 mm 2 m/S 673 mmHg 25%
    11:00 +28°C° 0 mm 3 m/S 672 mmHg 23%
    12:00 +29°C° 0 mm 3 m/S 672 mmHg 20%
    13:00 +30°C° 0 mm 3 m/S 672 mmHg 19%
    14:00 +30°C° 0 mm 3 m/S 671 mmHg 18%
    15:00 +31°C° 0 mm 2 m/S 670 mmHg 16%
    16:00 +29°C° 0 mm 2 m/S 670 mmHg 19%
    17:00 +27°C° 0 mm 2 m/S 669 mmHg 21%
    18:00 +26°C° 0 mm 2 m/S 669 mmHg 24%
    19:00 +25°C° 0 mm 2 m/S 669 mmHg 24%
    20:00 +25°C° 0 mm 2 m/S 669 mmHg 24%
    21:00 +24°C° 0 mm 2 m/S 669 mmHg 25%
    22:00 +23°C° 0 mm 2 m/S 669 mmHg 26%
    23:00 +23°C° 0 mm 2 m/S 669 mmHg 27%

    übermorgen, 21 September, Samstag

    Zeit Temperatur Niederschläge Wind Luftdruck Luftfeuchtigkeit
    00:00 +21°C° 0 mm 2 m/S 668 mmHg 28%
    01:00 +21°C° 0 mm 2 m/S 668 mmHg 30%
    02:00 +20°C° 0 mm 2 m/S 668 mmHg 32%
    03:00 +20°C° 0 mm 1 m/S 667 mmHg 35%
    04:00 +19°C° 0 mm 2 m/S 667 mmHg 38%
    05:00 +18°C° 0 mm 2 m/S 667 mmHg 41%
    06:00 +17°C° 0 mm 2 m/S 667 mmHg 45%
    07:00 +19°C° 0 mm 3 m/S 667 mmHg 41%
    08:00 +21°C° 0 mm 3 m/S 667 mmHg 37%
    09:00 +25°C° 0 mm 3 m/S 668 mmHg 33%
    10:00 +26°C° 0 mm 4 m/S 668 mmHg 30%
    11:00 +27°C° 0 mm 5 m/S 668 mmHg 27%
    12:00 +28°C° 0 mm 6 m/S 668 mmHg 24%
    13:00 +28°C° 0 mm 7 m/S 668 mmHg 25%
    14:00 +27°C° 0 mm 7 m/S 668 mmHg 27%
    15:00 +27°C° 0 mm 8 m/S 668 mmHg 28%
    16:00 +24°C° 0 mm 7 m/S 668 mmHg 32%
    17:00 +22°C° 0 mm 6 m/S 668 mmHg 36%
    18:00 +19°C° 0 mm 6 m/S 668 mmHg 40%
    19:00 +17°C° 0 mm 5 m/S 669 mmHg 40%
    20:00 +15°C° 0 mm 5 m/S 670 mmHg 40%
    21:00 +14°C° 0 mm 5 m/S 671 mmHg 40%
    22:00 +13°C° 0 mm 4 m/S 671 mmHg 42%
    23:00 +12°C° 0 mm 4 m/S 671 mmHg 43%

    22 September, Sonntag

    Zeit Temperatur Niederschläge Wind Luftdruck Luftfeuchtigkeit
    00:00 +12°C° 0 mm 4 m/S 672 mmHg 44%
    01:00 +11°C° 0 mm 4 m/S 672 mmHg 44%
    02:00 +11°C° 0 mm 3 m/S 672 mmHg 44%
    03:00 +10°C° 0 mm 3 m/S 672 mmHg 44%
    04:00 +10°C° 0 mm 3 m/S 672 mmHg 45%
    05:00 +9°C° 0 mm 2 m/S 672 mmHg 46%
    06:00 +9°C° 0 mm 2 m/S 672 mmHg 46%
    07:00 +12°C° 0 mm 2 m/S 673 mmHg 42%
    08:00 +14°C° 0 mm 2 m/S 673 mmHg 38%
    09:00 +16°C° 0 mm 2 m/S 674 mmHg 33%
    10:00 +17°C° 0 mm 2 m/S 674 mmHg 30%
    11:00 +19°C° 0 mm 2 m/S 674 mmHg 28%
    12:00 +20°C° 0 mm 2 m/S 674 mmHg 25%
    13:00 +21°C° 0 mm 2 m/S 673 mmHg 24%
    14:00 +21°C° 0 mm 2 m/S 673 mmHg 23%
    15:00 +23°C° 0 mm 2 m/S 672 mmHg 23%
    16:00 +20°C° 0 mm 2 m/S 672 mmHg 28%
    17:00 +19°C° 0 mm 1 m/S 672 mmHg 33%
    18:00 +18°C° 0 mm 1 m/S 671 mmHg 38%
    19:00 +16°C° 0 mm 1 m/S 671 mmHg 41%
    20:00 +15°C° 0 mm 2 m/S 672 mmHg 44%
    21:00 +14°C° 0 mm 3 m/S 672 mmHg 48%
    22:00 +14°C° 0 mm 2 m/S 672 mmHg 49%
    23:00 +14°C° 0 mm 2 m/S 672 mmHg 51%

    23 September, Montag

    Zeit Temperatur Niederschläge Wind Luftdruck Luftfeuchtigkeit
    00:00 +13°C° 0 mm 2 m/S 671 mmHg 53%
    01:00 +13°C° 0 mm 2 m/S 671 mmHg 55%
    02:00 +12°C° 0 mm 1 m/S 671 mmHg 56%
    03:00 +12°C° 0 mm 1 m/S 671 mmHg 58%
    04:00 +12°C° 0 mm 1 m/S 671 mmHg 59%
    05:00 +11°C° 0 mm 1 m/S 671 mmHg 60%
    06:00 +11°C° 0 mm 1 m/S 671 mmHg 61%
    07:00 +13°C° 0 mm 1 m/S 672 mmHg 54%
    08:00 +16°C° 0 mm 1 m/S 673 mmHg 47%
    09:00 +19°C° 0 mm 1 m/S 673 mmHg 40%
    10:00 +21°C° 0 mm 1 m/S 673 mmHg 37%
    11:00 +21°C° 0 mm 2 m/S 673 mmHg 34%
    12:00 +24°C° 0 mm 2 m/S 673 mmHg 31%
    13:00 +24°C° 0 mm 2 m/S 673 mmHg 29%
    14:00 +25°C° 0 mm 2 m/S 673 mmHg 27%
    15:00 +26°C° 0 mm 2 m/S 672 mmHg 25%
    16:00 +24°C° 0 mm 1 m/S 672 mmHg 30%
    17:00 +22°C° 0 mm 1 m/S 672 mmHg 36%
    18:00 +19°C° 0 mm 1 m/S 672 mmHg 41%
    19:00 +19°C° 0 mm 1 m/S 672 mmHg 44%
    20:00 +17°C° 0 mm 2 m/S 672 mmHg 47%
    21:00 +17°C° 0 mm 3 m/S 673 mmHg 50%
    22:00 +16°C° 0 mm 3 m/S 673 mmHg 51%
    23:00 +14°C° 0 mm 3 m/S 673 mmHg 53%

    24 September, Dienstag

    Zeit Temperatur Niederschläge Wind Luftdruck Luftfeuchtigkeit
    00:00 +15°C° 0 mm 2 m/S 673 mmHg 54%
    01:00 +14°C° 0 mm 2 m/S 673 mmHg 56%
    02:00 +14°C° 0 mm 2 m/S 673 mmHg 58%
    03:00 +13°C° 0 mm 2 m/S 673 mmHg 60%
    04:00 +13°C° 0 mm 2 m/S 673 mmHg 62%
    05:00 +12°C° 0 mm 2 m/S 673 mmHg 64%
    06:00 +12°C° 0 mm 2 m/S 673 mmHg 66%
    07:00 +14°C° 0 mm 1 m/S 673 mmHg 60%
    08:00 +16°C° 0 mm 1 m/S 674 mmHg 53%
    09:00 +19°C° 0 mm 1 m/S 674 mmHg 47%
    10:00 +20°C° 0 mm 2 m/S 674 mmHg 43%
    11:00 +21°C° 0 mm 2 m/S 674 mmHg 39%
    12:00 +23°C° 0 mm 2 m/S 674 mmHg 36%
    13:00 +24°C° 0 mm 2 m/S 673 mmHg 34%
    14:00 +25°C° 0 mm 2 m/S 673 mmHg 32%
    15:00 +25°C° 0 mm 2 m/S 672 mmHg 29%
    16:00 +24°C° 0 mm 2 m/S 672 mmHg 34%
    17:00 +22°C° 0 mm 1 m/S 672 mmHg 38%
    18:00 +20°C° 0 mm 1 m/S 671 mmHg 42%
    19:00 +19°C° 0 mm 1 m/S 671 mmHg 43%
    20:00 +19°C° 0 mm 1 m/S 671 mmHg 44%
    21:00 +17°C° 0 mm 2 m/S 671 mmHg 44%
    22:00 +17°C° 0 mm 2 m/S 671 mmHg 45%
    23:00 +17°C° 0 mm 2 m/S 671 mmHg 45%
    Mehr zeigen